Tracking 29511 objects as of 15-Sep-2024
HD Live streaming from Space Station
objects crossing your sky now

FENGYUN 1C DEB

Track FENGYUN 1C DEB now!
10-day predictions


NORAD ID: 31001
Int'l Code: 1999-025BCT
Perigee: 655.8 km
Apogee: 874.4 km
Inclination: 99.3 °
Period: 100.0 minutes
Semi major axis: 7136 km
RCS: 0.0111 m2 (small)
Launch date: May 10, 1999
Source: People's Republic of China (PRC)
Launch site: Taiyaun Space Center, China (TSC)

Note: This is SATELLITE DEBRIS
Your satellite tracking list
Your tracking list is empty




NASA's NSSDC Master Catalog

Two Line Element Set (TLE):
1 31001U 99025BCT 24257.96702978  .00006382  00000-0  17726-2 0  9992
2 31001  99.3178  84.4682 0153180  46.7479 314.6374 14.40152580916533
Source of the keplerian elements: AFSPC